KE7YUP Weather Reports


time (UTC)temp
F
wind
direction
speed
knots
gust
knots
rain 1hr
in
rain 24hr
in
rain mn
in
humidity
%
barometer
mb
20211205110017 39 358 2.6 3.5 0.00 0.00 0.00 69 1022.9
20211205105017 39 350 0.9 1.7 0.00 0.00 0.00 69 1022.9
20211205104016 39 350 1.7 2.6 0.00 0.00 0.00 69 1023.0
20211205103017 39 335 3.5 3.5 0.00 0.00 0.00 70 1023.0
20211205102016 38 4 4.3 4.3 0.00 0.00 0.00 72 1023.0
20211205101016 38 354 3.5 3.5 0.00 0.00 0.00 70 1022.9
20211205100017 39 355 1.7 2.6 0.00 0.00 0.00 70 1023.0
20211205095017 39 343 3.5 5.2 0.00 0.00 0.00 71 1023.4
20211205094017 39 340 4.3 5.2 0.00 0.00 0.00 70 1023.4
20211205093017 38 354 3.5 4.3 0.00 0.00 0.00 72 1023.0
20211205092016 38 347 3.5 5.2 0.00 0.00 0.00 72 1022.8
20211205091017 38 348 3.5 4.3 0.00 0.00 0.00 72 1022.9
20211205090017 38 351 2.6 3.5 0.00 0.00 0.00 73 1022.9
20211205085016 38 17 1.7 2.6 0.00 0.00 0.00 72 1022.5
20211205084017 38 10 2.6 3.5 0.00 0.00 0.00 73 1022.8
20211205083017 39 5 2.6 3.5 0.00 0.00 0.00 72 1023.1
20211205082016 38 355 2.6 3.5 0.00 0.00 0.00 71 1023.6
20211205081016 39 351 2.6 3.5 0.00 0.00 0.00 70 1023.6
20211205080017 40 351 0.9 1.7 0.00 0.00 0.00 71 1023.7
20211205075016 39 354 3.5 4.3 0.00 0.00 0.00 71 1023.6
20211205074017 39 355 2.6 2.6 0.00 0.00 0.00 71 1023.5
20211205073016 39 345 3.5 4.3 0.00 0.00 0.00 71 1023.3
20211205072016 39 355 0.9 1.7 0.00 0.00 0.00 70 1023.3
20211205071016 40 355 2.6 2.6 0.00 0.00 0.00 70 1023.4
20211205070020 40 336 2.6 3.5 0.00 0.00 0.00 70 1023.1
20211205065017 40 236 0.9 1.7 0.00 0.00 0.00 69 1023.3
20211205064017 41 344 3.5 4.3 0.00 0.00 0.00 68 1023.4
20211205063017 42 338 3.5 4.3 0.00 0.00 0.00 66 1023.6
20211205062018 42 321 1.7 3.5 0.00 0.00 0.00 66 1023.4
20211205061017 42 314 1.7 3.5 0.00 0.00 0.00 66 1023.4
20211205060018 42 344 0.9 1.7 0.00 0.00 0.00 66 1023.4
20211205055017 42 329 0.9 1.7 0.00 0.00 0.00 67 1023.5
20211205054018 42 340 2.6 4.3 0.00 0.00 0.00 66 1023.2
20211205053017 42 355 4.3 4.3 0.00 0.00 0.00 66 1023.0
20211205052017 42 346 3.5 3.5 0.00 0.00 0.00 66 1023.3
20211205051017 42 348 2.6 3.5 0.00 0.00 0.00 66 1023.1
20211205050017 42 358 3.5 4.3 0.00 0.00 0.00 66 1022.8
20211205045018 43 39 1.7 2.6 0.00 0.00 0.00 65 1023.0
20211205044017 43 0 3.5 4.3 0.00 0.00 0.00 64 1023.0
20211205043017 44 355 3.5 4.3 0.00 0.00 0.00 63 1023.3
20211205042017 45 61 1.7 2.6 0.00 0.00 0.00 63 1023.2
20211205041019 45 335 3.5 4.3 0.00 0.00 0.00 64 1023.4
20211205040017 44 337 3.5 3.5 0.00 0.00 0.00 65 1023.0
20211205035017 43 348 0.9 1.7 0.00 0.00 0.00 64 1022.5
20211205034019 44 323 3.5 4.3 0.00 0.00 0.00 64 1022.5
20211205033017 42 337 3.5 5.2 0.00 0.00 0.00 67 1022.2
20211205032017 42 342 2.6 3.5 0.00 0.00 0.00 68 1022.1
20211205031016 42 342 2.6 3.5 0.00 0.00 0.00 66 1021.6
20211205030017 43 342 0.9 1.7 0.00 0.00 0.00 65 1021.5
20211205025017 44 330 1.7 1.7 0.00 0.00 0.00 63 1021.4
20211205024019 44 325 1.7 3.5 0.00 0.00 0.00 63 1021.5
20211205023017 43 346 4.3 5.2 0.00 0.00 0.00 65 1021.1
20211205022016 43 342 2.6 3.5 0.00 0.00 0.00 64 1021.5
20211205021016 44 355 2.6 4.3 0.00 0.00 0.00 63 1021.5
20211205020017 44 329 0.9 2.6 0.00 0.00 0.00 64 1021.4
20211205015017 43 344 4.3 4.3 0.00 0.00 0.00 65 1021.0
20211205014017 43 343 3.5 4.3 0.00 0.00 0.00 64 1021.3
20211205013017 43 347 2.6 3.5 0.00 0.00 0.00 63 1021.4
20211205012016 43 346 2.6 3.5 0.00 0.00 0.00 63 1021.5
20211205011018 43 346 2.6 3.5 0.00 0.00 0.00 63 1021.5
20211205010016 43 345 4.3 5.2 0.00 0.00 0.00 63 1021.6
20211205005017 43 355 2.6 3.5 0.00 0.00 0.00 62 1021.5
20211205004018 44 355 1.7 2.6 0.00 0.00 0.00 61 1021.5
20211205003016 45 355 1.7 2.6 0.00 0.00 0.00 60 1021.5
20211205002017 45 355 0.9 1.7 0.00 0.00 0.00 59 1021.5
20211205001016 46 355 2.6 3.5 0.00 0.00 0.00 57 1021.9
20211205000016 48 78 1.7 2.6 0.00 0.00 0.00 55 1022.3
20211204235016 49 78 0.0 0.9 0.00 0.00 0.00 54 1022.3
20211204234016 49 78 1.7 2.6 0.00 0.00 0.00 54 1022.7
20211204233017 50 79 1.7 1.7 0.00 0.00 0.00 53 1022.7
20211204232018 50 78 2.6 3.5 0.00 0.00 0.00 52 1023.0
20211204231016 51 122 2.6 3.5 0.00 0.00 0.00 52 1023.6
20211204230016 50 107 1.7 2.6 0.00 0.00 0.00 53 1023.4
20211204225016 50 67 2.6 3.5 0.00 0.00 0.00 52 1023.1
20211204224016 50 55 1.7 3.5 0.00 0.00 0.00 53 1023.2
20211204223016 50 96 2.6 3.5 0.00 0.00 0.00 52 1023.1
20211204222016 50 69 2.6 4.3 0.00 0.00 0.00 52 1023.2
20211204221017 50 99 3.5 5.2 0.00 0.00 0.00 53 1023.0
20211204220017 50 81 3.5 6.1 0.00 0.00 0.00 53 1022.9
20211204215017 51 67 4.3 7.0 0.00 0.00 0.00 52 1023.3
20211204214017 51 87 2.6 6.1 0.00 0.00 0.00 52 1023.4
20211204213016 51 126 2.6 4.3 0.00 0.00 0.00 53 1023.5
20211204212016 51 121 4.3 6.1 0.00 0.00 0.00 53 1023.6
20211204211016 50 130 3.5 4.3 0.00 0.00 0.00 53 1023.7
20211204210016 50 114 3.5 6.1 0.00 0.00 0.00 54 1023.7
20211204205016 49 84 4.3 6.1 0.00 0.00 0.00 55 1023.3
20211204204017 49 86 6.1 7.8 0.00 0.00 0.00 55 1023.4
20211204203016 51 98 5.2 7.0 0.00 0.00 0.00 53 1023.9
20211204202015 52 127 2.6 3.5 0.00 0.00 0.00 51 1024.3
20211204201017 51 126 2.6 3.5 0.00 0.00 0.00 53 1024.5
20211204200016 52 163 3.5 4.3 0.00 0.00 0.00 52 1024.0
20211204195016 51 225 0.9 1.7 0.00 0.00 0.00 54 1024.2
20211204194016 50 126 2.6 3.5 0.00 0.00 0.00 55 1023.9
20211204193017 48 101 0.9 2.6 0.00 0.00 0.00 58 1024.1
20211204192018 47 123 1.7 2.6 0.00 0.00 0.00 60 1024.2
20211204191018 47 88 2.6 4.3 0.00 0.00 0.00 59 1024.6
20211204190018 47 104 2.6 5.2 0.00 0.00 0.00 59 1024.8
20211204185018 46 124 1.7 3.5 0.00 0.00 0.00 60 1024.5
20211204184018 46 112 2.6 5.2 0.00 0.00 0.00 59 1025.0
20211204183017 46 126 1.7 5.2 0.00 0.00 0.00 61 1025.0
20211204182017 45 110 0.9 2.6 0.00 0.00 0.00 63 1025.0
20211204181020 44 103 2.6 5.2 0.00 0.00 0.00 63 1024.8
20211204180018 44 121 2.6 3.5 0.00 0.00 0.00 62 1025.4
20211204175018 44 99 3.5 5.2 0.00 0.00 0.00 63 1025.5
20211204174018 42 113 1.7 5.2 0.00 0.00 0.00 64 1025.1
20211204173017 42 80 2.6 6.1 0.00 0.00 0.00 64 1025.5
20211204172018 42 116 1.7 3.5 0.00 0.00 0.00 67 1025.6
20211204171017 42 133 1.7 3.5 0.00 0.00 0.00 67 1025.6
20211204170017 41 91 3.5 5.2 0.00 0.00 0.00 67 1025.1
20211204165017 41 95 2.6 5.2 0.00 0.00 0.00 68 1025.2
20211204164019 41 120 1.7 2.6 0.00 0.00 0.00 68 1025.0
20211204163017 42 119 2.6 5.2 0.00 0.00 0.00 66 1025.3
20211204162017 42 72 1.7 2.6 0.00 0.00 0.00 66 1025.1
20211204161018 43 68 1.7 2.6 0.00 0.00 0.00 66 1025.0
20211204160018 42 68 0.0 1.7 0.00 0.00 0.00 70 1024.7
20211204155017 40 0.0 0.0 0.00 0.00 0.00 73 1024.4
20211204154017 39 67 0.9 1.7 0.00 0.00 0.00 73 1024.4
20211204153019 38 68 1.7 2.6 0.00 0.00 0.00 74 1023.9
20211204152018 38 68 2.6 3.5 0.00 0.00 0.00 74 1024.3
20211204151017 37 67 0.9 1.7 0.00 0.00 0.00 76 1024.3
20211204150019 35 49 2.6 3.5 0.00 0.00 0.00 78 1024.2
20211204145018 35 23 1.7 1.7 0.00 0.00 0.00 79 1024.2
20211204144017 35 0 0.9 2.6 0.00 0.00 0.00 79 1024.2
20211204143018 35 0 0.0 1.7 0.00 0.00 0.00 79 1023.7
20211204142017 35 0 0.9 1.7 0.00 0.00 0.00 78 1023.7
20211204141018 35 355 1.7 2.6 0.00 0.00 0.00 79 1023.5
20211204140018 34 350 1.7 2.6 0.00 0.00 0.00 80 1023.1
20211204135018 34 0.0 0.0 0.00 0.00 0.00 78 1022.5
20211204134017 35 10 0.9 1.7 0.00 0.00 0.00 77 1022.9
20211204133017 36 36 1.7 3.5 0.00 0.00 0.00 75 1023.4
20211204132018 36 36 2.6 3.5 0.00 0.00 0.00 76 1023.4
20211204131017 36 15 2.6 3.5 0.00 0.00 0.00 77 1023.3
20211204130017 36 38 1.7 2.6 0.00 0.00 0.00 77 1023.1
20211204125017 36 355 4.3 5.2 0.00 0.00 0.00 77 1023.3
20211204124018 35 355 4.3 5.2 0.00 0.00 0.00 80 1023.4
20211204123017 34 342 2.6 3.5 0.00 0.00 0.00 80 1022.9
20211204122018 33 344 3.5 4.3 0.00 0.00 0.00 79 1022.9
20211204121017 34 345 3.5 4.3 0.00 0.00 0.00 79 1023.4
20211204120018 34 81 1.7 2.6 0.00 0.00 0.00 78 1023.6
20211204115017 34 81 0.9 0.9 0.00 0.00 0.00 78 1024.0
20211204114017 35 0.0 0.0 0.00 0.00 0.00 76 1024.8
20211204113019 35 0.0 0.9 0.00 0.00 0.00 76 1024.6
20211204112017 36 81 0.0 0.9 0.00 0.00 0.00 75 1024.8
20211204111016 37 81 0.9 1.7 0.00 0.00 0.00 73 1025.2